Retour au catalogue

DELTA 1 DEB

ActifSSO
NORAD 21516·DEBRIS·🇺🇸 United States

Lancé Jun 12, 1975 depuis Vandenberg Space Force Base

Loading…

Prochains Passages (prochaines 24 heures)

TLE

FraisSource: Space-Track

Époque: Sep 14, 2026, 07:42 UTC

1 21516U 75052GM  26257.32091003  .00000118  00000-0  32205-3 0  9999
2 21516  99.8265  27.1563 0070717  97.5246 291.6102 13.33022711706136

Suivez DELTA 1 DEB en temps réel avec AllMySat

Download on the App Store